sat.trackr.live / text

‹ back to catalog

SARSAT 13 (METOP-B)

NORAD 38771 · 2012-049A

PAYLOAD ACTIVE UNKNOWN

§ Identity

Operator
Country
EUME
Launch date
2012-09-17
Launch site
TYMSC
Launch vehicle
Mass (kg)
RCS (m²)
13.65

Purposes: earth_obs

External: N2YO · Heavens-Above · Gunter

§ Orbital elements

Epoch: 2026-09-20T03:30:47.537856Z

Period
101.30 min
Inclination
98.6407°
Eccentricity
0.0003384
Mean motion
14.21459948 rev/d
Perigee alt
818.0 km
Apogee alt
822.9 km
Semi-major
7,198.6 km
B*
3.6552e-5
RAAN
312.7067°
Arg perigee
80.0627°
Mean anomaly
280.0932°
Rev number
72,675

§ Raw data

SARSAT 13 (METOP-B)1 38771U 12049A   26263.14638354  .00000037  00000+0  36552-4 0  99992 38771  98.6407 312.7067 0003384  80.0627 280.0932 14.21459948726757

JSON: /api/v1/satellites/38771 · /tle

For live sub-satellite position, see the globe view (requires WebGL).

§ Visibility from observer

Set your observer location to see the next 7 days of passes ≥ 10°. The values pass through the URL so the page stays shareable.

No JS? Fill the form by hand. The geolocation button needs JavaScript.

§ Radio — SatNOGS DB

ModeDescriptionDownlinkUplink
AHRPT AHRPT Downlink 1.701 GHz
BPSK ARGOS-3 465.988 MHz
BPSK PMT-A3 ARGOS-3 A-DCS 465.9875MHz 465.988 MHz
CW Beacon 2.230 GHz
FM Mode X (active over Norway) 7.800 GHz
BPSK SARSAT L-Band 1.545 GHz

6 transmitters · refreshed weekly from db.satnogs.org